This is the latest recevied weather packets stored in our database for station/object DB0NLS-15. If no packets are shown the sender has not sent any weather packets the latest 10 day(s).
| Time | Temp. | Humidity | Pressure | Rain* | Wind** | Luminosity | Snow |
|---|---|---|---|---|---|---|---|
| 1777180574 | 5° C | 72% | 1010.7 hPa | 0 mm | - | - | - |
| 1777179971 | 5° C | 72% | 1010.6 hPa | 0 mm | - | - | - |
| 1777179362 | 4.44° C | 73% | 1010.3 hPa | 0 mm | - | - | - |
| 1777178760 | 4.44° C | 73% | 1010.1 hPa | 0 mm | - | - | - |
| 1777178157 | 3.89° C | 74% | 1009.9 hPa | 0 mm | - | - | - |
| 1777177550 | 3.89° C | 74% | 1009.7 hPa | 0 mm | - | - | - |
| 1777176947 | 4.44° C | 73% | 1009.4 hPa | 0 mm | - | - | - |
| 1777176339 | 4.44° C | 72% | 1009.2 hPa | 0 mm | - | - | - |
| 1777175736 | 4.44° C | 72% | 1009 hPa | 0 mm | - | - | - |
| 1777175133 | 4.44° C | 72% | 1009 hPa | 0 mm | - | - | - |
| 1777174525 | 4.44° C | 71% | 1008.8 hPa | 0 mm | - | - | - |
| 1777173922 | 5° C | 71% | 1008.6 hPa | 0 mm | - | - | - |
| 1777173375 | 5° C | 71% | 1008.5 hPa | 0 mm | - | - | - |
| 1777172772 | 5° C | 70% | 1008.3 hPa | 0 mm | - | - | - |
| 1777172170 | 5° C | 70% | 1008.2 hPa | 0 mm | - | - | - |
| 1777171562 | 5.56° C | 70% | 1008.1 hPa | 0 mm | - | - | - |
| 1777170959 | 5.56° C | 70% | 1008 hPa | 0 mm | - | - | - |
| 1777170352 | 5.56° C | 70% | 1007.9 hPa | 0 mm | - | - | - |
| 1777169748 | 5.56° C | 70% | 1007.6 hPa | 0 mm | - | - | - |
| 1777169146 | 6.11° C | 70% | 1007.5 hPa | 0 mm | - | - | - |
| 1777168537 | 6.11° C | 69% | 1007.4 hPa | 0 mm | - | - | - |
| 1777167935 | 6.11° C | 69% | 1007.1 hPa | 0 mm | - | - | - |
| 1777167327 | 6.11° C | 69% | 1007.1 hPa | 0 mm | - | - | - |
| 1777166724 | 6.67° C | 68% | 1006.9 hPa | 0 mm | - | - | - |
| 1777166122 | 6.67° C | 68% | 1006.8 hPa | 0 mm | - | - | - |
* Rain latest hour (hover to see other rain measurements)
** Current wind speed in m/s (hover to see current wind gust speed)